| time (UTC) | temp F | wind direction | speed MPH | gust MPH | rain 1hr in | rain 24hr in | rain mn in | humidity % | barometer mb |
| 20260904034534 | 61 | 26 | 0.0 | 1.0 | 0.00 | 0.00 | 0.00 | 77 | 1009.8 |
| 20260904033034 | 62 | 36 | 0.0 | 0.0 | 0.00 | 0.00 | 0.00 | 76 | 1009.6 |
| 20260904031534 | 62 | 36 | 0.0 | 0.0 | 0.00 | 0.00 | 0.00 | 75 | 1009.5 |
| 20260904030136 | 62 | 36 | 0.0 | 0.0 | 0.00 | 0.00 | 0.00 | 74 | 1009.4 |
| 20260904024531 | 63 | 36 | 0.0 | 1.0 | 0.00 | 0.00 | 0.00 | 73 | 1009.5 |
| 20260904023030 | 63 | 315 | 0.0 | 0.0 | 0.00 | 0.00 | 0.00 | 71 | 1009.7 |
| 20260904021529 | 64 | 315 | 0.0 | 0.0 | 0.00 | 0.00 | 0.00 | 69 | 1009.5 |
| 20260904020129 | 65 | 309 | 0.0 | 1.0 | 0.00 | 0.00 | 0.00 | 67 | 1009.6 |
| 20260904014529 | 66 | 295 | 0.0 | 2.0 | 0.00 | 0.00 | 0.00 | 65 | 1009.6 |
| 20260904013028 | 67 | 352 | 0.0 | 2.0 | 0.00 | 0.00 | 0.00 | 61 | 1009.5 |
| 20260904011528 | 68 | 304 | 0.0 | 2.0 | 0.00 | 0.00 | 0.00 | 56 | 1009.6 |
| 20260904004526 | 71 | 11 | 0.0 | 2.0 | 0.00 | 0.00 | 0.00 | 43 | 1009.6 |
| 20260904003026 | 72 | 356 | 0.0 | 2.0 | 0.00 | 0.00 | 0.00 | 43 | 1009.6 |
| 20260904001525 | 71 | 280 | 1.0 | 3.0 | 0.00 | 0.00 | 0.00 | 43 | 1009.6 |
| 20260904000126 | 71 | 359 | 1.0 | 3.0 | 0.00 | 0.00 | 0.00 | 41 | 1009.6 |
| 20260903234528 | 72 | 17 | 0.0 | 3.0 | 0.00 | 0.00 | 0.00 | 44 | 1009.8 |
| 20260903233022 | 72 | 18 | 0.0 | 2.0 | 0.00 | 0.00 | 0.00 | 44 | 1009.9 |
| 20260903231521 | 71 | 290 | 0.0 | 5.0 | 0.00 | 0.00 | 0.00 | 46 | 1010.3 |
| 20260903230120 | 72 | 11 | 1.0 | 3.0 | 0.00 | 0.00 | 0.00 | 45 | 1010.5 |
| 20260903224525 | 72 | 347 | 0.0 | 2.0 | 0.00 | 0.00 | 0.00 | 47 | 1010.7 |
| 20260903223019 | 72 | 346 | 0.0 | 2.0 | 0.00 | 0.00 | 0.00 | 49 | 1010.9 |
| 20260903221516 | 72 | 13 | 1.0 | 4.0 | 0.00 | 0.00 | 0.00 | 49 | 1011.0 |
| 20260903220125 | 73 | 286 | 0.0 | 2.0 | 0.00 | 0.00 | 0.00 | 49 | 1011.0 |
| 20260903214528 | 74 | 3 | 0.0 | 3.0 | 0.00 | 0.00 | 0.00 | 48 | 1011.0 |
| 20260903213018 | 74 | 149 | 1.0 | 6.0 | 0.00 | 0.00 | 0.00 | 47 | 1010.8 |
| 20260903211519 | 75 | 30 | 0.0 | 3.0 | 0.00 | 0.00 | 0.00 | 47 | 1010.9 |
| 20260903210120 | 74 | 295 | 2.0 | 4.0 | 0.00 | 0.00 | 0.00 | 47 | 1011.0 |
| 20260903204512 | 75 | 19 | 2.0 | 5.0 | 0.00 | 0.00 | 0.00 | 45 | 1011.0 |
| 20260903203022 | 75 | 297 | 2.0 | 4.0 | 0.00 | 0.00 | 0.00 | 47 | 1011.0 |
| 20260903201511 | 76 | 38 | 1.0 | 5.0 | 0.00 | 0.00 | 0.00 | 44 | 1011.1 |
| 20260903200112 | 76 | 345 | 1.0 | 5.0 | 0.00 | 0.00 | 0.00 | 46 | 1011.1 |
| 20260903194518 | 76 | 352 | 0.0 | 4.0 | 0.00 | 0.00 | 0.00 | 44 | 1011.3 |
| 20260903193006 | 75 | 13 | 1.0 | 4.0 | 0.00 | 0.00 | 0.00 | 45 | 1011.4 |
| 20260903191508 | 75 | 295 | 1.0 | 3.0 | 0.00 | 0.00 | 0.00 | 46 | 1011.6 |
| 20260903184602 | 73 | 285 | 1.0 | 3.0 | 0.00 | 0.00 | 0.00 | 45 | 1012.0 |
| 20260903183101 | 73 | 309 | 1.0 | 4.0 | 0.00 | 0.00 | 0.00 | 45 | 1012.1 |
| 20260903181558 | 73 | 195 | 0.0 | 2.0 | 0.00 | 0.00 | 0.00 | 48 | 1012.2 |
| 20260903180057 | 73 | 295 | 0.0 | 2.0 | 0.00 | 0.00 | 0.00 | 47 | 1012.3 |
| 20260903174556 | 73 | 90 | 0.0 | 0.0 | 0.00 | 0.00 | 0.00 | 48 | 1012.3 |
| 20260903173053 | 72 | 174 | 0.0 | 0.0 | 0.00 | 0.00 | 0.00 | 50 | 1012.3 |
| 20260903171550 | 71 | 101 | 0.0 | 0.0 | 0.00 | 0.00 | 0.00 | 50 | 1012.6 |
| 20260903170049 | 70 | 101 | 0.0 | 0.0 | 0.00 | 0.00 | 0.00 | 53 | 1012.7 |
| 20260903164544 | 67 | 95 | 0.0 | 0.0 | 0.00 | 0.00 | 0.00 | 56 | 1012.8 |
| 20260903163044 | 65 | 174 | 0.0 | 0.0 | 0.00 | 0.00 | 0.00 | 58 | 1013.0 |
| 20260903161550 | 65 | 172 | 0.0 | 0.0 | 0.00 | 0.00 | 0.00 | 59 | 1013.1 |
| 20260903160043 | 67 | 132 | 0.0 | 0.0 | 0.00 | 0.00 | 0.00 | 55 | 1013.3 |
| 20260903154538 | 65 | 132 | 0.0 | 0.0 | 0.00 | 0.00 | 0.00 | 61 | 1013.5 |
| 20260903153035 | 59 | 133 | 0.0 | 0.0 | 0.00 | 0.00 | 0.00 | 71 | 1013.7 |
| 20260903151530 | 54 | 133 | 0.0 | 0.0 | 0.00 | 0.00 | 0.00 | 76 | 1013.7 |
| 20260903150033 | 50 | 133 | 0.0 | 0.0 | 0.00 | 0.00 | 0.00 | 81 | 1013.6 |
| 20260903144529 | 49 | 132 | 0.0 | 0.0 | 0.00 | 0.00 | 0.00 | 82 | 1013.6 |
| 20260903143047 | 48 | 133 | 0.0 | 2.0 | 0.00 | 0.00 | 0.00 | 83 | 1013.6 |
| 20260903141528 | 48 | 132 | 0.0 | 1.0 | 0.00 | 0.00 | 0.00 | 83 | 1013.3 |
| 20260903140030 | 47 | 142 | 1.0 | 3.0 | 0.00 | 0.00 | 0.00 | 84 | 1013.2 |
| 20260903134529 | 47 | 147 | 0.0 | 2.0 | 0.00 | 0.00 | 0.00 | 85 | 1013.2 |
| 20260903133025 | 47 | 138 | 1.0 | 3.0 | 0.00 | 0.00 | 0.00 | 85 | 1013.2 |
| 20260903131524 | 47 | 141 | 0.0 | 2.0 | 0.00 | 0.00 | 0.00 | 85 | 1013.1 |
| 20260903130024 | 47 | 136 | 0.0 | 2.0 | 0.00 | 0.00 | 0.00 | 85 | 1013.1 |
| 20260903124523 | 47 | 135 | 0.0 | 3.0 | 0.00 | 0.00 | 0.00 | 85 | 1013.1 |
| 20260903123021 | 48 | 145 | 0.0 | 2.0 | 0.00 | 0.00 | 0.00 | 85 | 1013.2 |
| 20260903121526 | 47 | 143 | 1.0 | 3.0 | 0.00 | 0.00 | 0.00 | 86 | 1013.4 |
| 20260903120016 | 47 | 139 | 1.0 | 2.0 | 0.00 | 0.00 | 0.00 | 86 | 1013.5 |
| 20260903114514 | 48 | 139 | 0.0 | 2.0 | 0.00 | 0.00 | 0.00 | 86 | 1013.7 |
| 20260903113024 | 48 | 137 | 1.0 | 2.0 | 0.00 | 0.00 | 0.00 | 87 | 1013.7 |
| 20260903111541 | 48 | 146 | 0.0 | 3.0 | 0.00 | 0.00 | 0.00 | 87 | 1013.8 |
| 20260903110007 | 48 | 136 | 1.0 | 3.0 | 0.00 | 0.00 | 0.00 | 86 | 1013.9 |
| 20260903104506 | 48 | 142 | 0.0 | 3.0 | 0.00 | 0.00 | 0.00 | 87 | 1013.9 |
| 20260903103004 | 48 | 141 | 0.0 | 3.0 | 0.00 | 0.00 | 0.00 | 87 | 1014.0 |
| 20260903101502 | 48 | 138 | 1.0 | 3.0 | 0.00 | 0.00 | 0.00 | 86 | 1013.9 |
| 20260903100100 | 48 | 141 | 0.0 | 3.0 | 0.00 | 0.00 | 0.00 | 86 | 1013.9 |
| 20260903100002 | 48 | 141 | 1.0 | 3.0 | 0.00 | 0.00 | 0.00 | 86 | 1013.9 |
| 20260903094609 | 48 | 131 | 0.0 | 2.0 | 0.00 | 0.00 | 0.00 | 86 | 1014.0 |
| 20260903093107 | 48 | 137 | 1.0 | 2.0 | 0.00 | 0.00 | 0.00 | 86 | 1014.1 |
| 20260903091555 | 48 | 141 | 1.0 | 3.0 | 0.00 | 0.00 | 0.00 | 86 | 1014.3 |
| 20260903090052 | 48 | 132 | 0.0 | 0.0 | 0.00 | 0.00 | 0.00 | 86 | 1014.4 |
| 20260903084550 | 49 | 133 | 0.0 | 0.0 | 0.00 | 0.00 | 0.00 | 85 | 1014.6 |
| 20260903083053 | 49 | 134 | 0.0 | 0.0 | 0.00 | 0.00 | 0.00 | 84 | 1014.6 |
| 20260903081548 | 49 | 135 | 0.0 | 1.0 | 0.00 | 0.00 | 0.00 | 84 | 1014.6 |
| 20260903080045 | 50 | 137 | 0.0 | 0.0 | 0.00 | 0.00 | 0.00 | 84 | 1014.6 |
| 20260903074543 | 50 | 137 | 0.0 | 0.0 | 0.00 | 0.00 | 0.00 | 84 | 1014.5 |
| 20260903073042 | 51 | 138 | 0.0 | 0.0 | 0.00 | 0.00 | 0.00 | 83 | 1014.6 |
| 20260903071542 | 51 | 138 | 0.0 | 0.0 | 0.00 | 0.00 | 0.00 | 82 | 1014.5 |
| 20260903070039 | 51 | 138 | 0.0 | 0.0 | 0.00 | 0.00 | 0.00 | 82 | 1014.6 |
| 20260903064541 | 52 | 138 | 0.0 | 0.0 | 0.00 | 0.00 | 0.00 | 81 | 1014.6 |
| 20260903063038 | 52 | 138 | 0.0 | 0.0 | 0.00 | 0.00 | 0.00 | 80 | 1014.6 |
| 20260903061550 | 53 | 138 | 0.0 | 1.0 | 0.00 | 0.00 | 0.00 | 80 | 1014.7 |
| 20260903060041 | 53 | 138 | 0.0 | 0.0 | 0.00 | 0.00 | 0.00 | 79 | 1014.8 |
| 20260903054541 | 54 | 138 | 0.0 | 1.0 | 0.00 | 0.00 | 0.00 | 78 | 1014.8 |
| 20260903053038 | 54 | 145 | 0.0 | 1.0 | 0.00 | 0.00 | 0.00 | 77 | 1014.9 |
| 20260903051537 | 55 | 145 | 0.0 | 1.0 | 0.00 | 0.00 | 0.00 | 77 | 1014.8 |
| 20260903050037 | 55 | 137 | 0.0 | 1.0 | 0.00 | 0.00 | 0.00 | 76 | 1014.8 |
| 20260903044540 | 56 | 98 | 0.0 | 1.0 | 0.00 | 0.00 | 0.00 | 75 | 1014.8 |
| 20260903043042 | 56 | 98 | 0.0 | 1.0 | 0.00 | 0.00 | 0.00 | 74 | 1014.7 |
| 20260903041536 | 57 | 50 | 0.0 | 0.0 | 0.00 | 0.00 | 0.00 | 73 | 1014.7 |